Погода в Максатихе

Погода в Максатихе : погода сейчас, прогноз погоды и архив. Всё, что Вы хотите узнать о погоде в Максатихе!

Поиск расширенной информации на нашем сайте:

Другие новости

Новости СМИ2

Главная страница сайта

Новости сайта

02.10.2013

Напоминаем, что на нашем новом сайте вы можете получить высокодетализированные прогнозы погоды по пунктам России, СНГ и мира (включающие важные для авиации метеовеличины, такие как направление и скорость ветра, видимость, явления погоды, количество и форма облачности, нижняя и верхняя граница облачности), а также ознакомиться с разнообразными материалами по авиационной метеорологии и подборкой полезных ссылок на эту тему.

Сайт Метеоцентр.Азия посвящён разработке технологий оптимизации авиаметеорологического обслуживания, включая проектирование и перспективное создание нескольких автоматизированных авиаметеорологических систем:
- система выпуска высокодетальных прогностических карт явлений погоды для нижнего воздушного пространства по России и ближнему зарубежью;
- система верификации прогнозов TAF (выпускаемых синоптиками официальных АМСГ РФ и ближнего зарубежья) и AUTOTAF (выпускаемых сайтом Метеоцентр.Азия) - выявление ошибок, онлайн-сопоставление с фактической погодой METAR, автоматическое внесение коррективов в прогнозы при резком отклонении фактической погоды от прогноза, подсчёт оправдываемости прогнозов по элементам и в целом;
- система обработки, анализа и отображения авиаметеорологической информации для применения провайдерами метеорологической информации.

Рекомендуем: Стирка пуховика и подушек в стиральной машине moyatehnika.ru.

Погода в Максатихе - сегодня

Время (UTC), дата Ветер
(°,м/с) 
Видим.   Явления Облачность Т
(°С)
Тd
(°С)
f(%) Тe
(°С)
Pmin
(гПа)
dP
(гПа)
Po
(мм)
O2
(г/м3)
Тmin Tmax R s Состояние
почвы
21 23.06.17 290 (З) 4000 м  дымка  3/0 средняя, верхняя 
[Ac trans|Ci fib]
+8.6 +7.2 91 +9  1005.3  0.5  741  288           
00 24.06.17 300 (СЗ) 4000 м  дымка  9/9 1000 м 
[Sc]
+7.9 +6.7 92 +9  1005.9  0.5  741  289           
03 24.06.17 350 (С) 4000 м  дымка  9/9 1000 м 
[Sc]
+8.9 +7.4 90 +10  1006.6  0.8  742  288  +6.5    0.5     
06 24.06.17 290 (З) 10 км    9/4 200 м средняя 
[St|Ac trans]
+13.4 +6.4 63 +14  1006.5  0.2  742  284  +6.5        влажная 
09 24.06.17 240 (ЮЗ) 10 км    8/6 300 м средняя 
[Sc|Ac trans]
+16.4 +5.5 48 +17  1006.4  742  281           
12 24.06.17 270 (З) 10 км  {ливн. осадки}  9/5 300 м средняя, верхняя 
[Sc diur, vesp|Ac trans|Ci fib]
+16 +5.7 50 +17  1006.2  -0.2  742  282           
15 24.06.17 220 (ЮЗ) 10 км    9/1 600 м средняя 
[Cu med, cong|Ac trans]
+15.7 +6.2 53 +16  1006.2  742  282      0.0     
18 24.06.17 140 (ЮВ) 10 км    9/9 600 м 
[Sc]
+12.8 +8.6 76 +14  1006.2  -0.2  742  284    +17  0.0     
21 24.06.17 150 (ЮВ) 10 км    8/3 1000 м верхняя 
[Sc|Ci]
+9.4 +6.8 84 +10  1005.8  -0.6  741  288           
00 25.06.17 150 (ЮВ) 10 км    9/9 600 м 
[Sc]
+11.2 +6.8 74 +11  1004.6  -1.1  741  286           
03 25.06.17 170 (Ю) 10 км  слаб. ливневой дождь  9/9 600 м кучево-дожд. 
[Cb cap]
+11.1 +9.1 87 +11  1003.2  -1.1  740  285  +9.2    0.0     
06 25.06.17 150 (ЮВ) 4000 м  слаб. ливневой дождь  9/9 600 м кучево-дожд. 
[Cb cap]
+12.2 +11.3 94 +16  1001.9  -1.1  739  283  +9.2      влажная 
09 25.06.17 230 (ЮЗ) 10 км  в посл. час ливневой дождь  9/9 600 м 
[Sc diur, vesp]
+16.4 +13.6 83 +24  1001.6  0.1  739  278           
12 25.06.17 210 (ЮЗ) 10 км  {ливн. осадки}  8/8 600 м кучево-дожд. 
[Cb cap]
+19.3 +12.4 64 +25  1001.1  -0.4  738  275           
15 25.06.17 240 (ЮЗ) 10 км    8/4 600 м средняя 
[Cu med, cong|Ac trans]
+19.5 +11.6 60 +24  1001.8  0.7  739  276         
18 25.06.17 200 (Ю) 10 км    8/3 600 м средняя, верхняя 
[Cu Sc|Ac trans|Ci fib]
+16.7 +12.5 76 +23  1002.4  0.4  739  278    +20  0.8     
21 25.06.17 190 (Ю) 4000 м  дымка  9/0 средняя, верхняя 
[Ac trans|Ci fib]
+12.3 +11.7 96 +17  1002.5  -0.2  739  283           
00 26.06.17 220 (ЮЗ) 4000 м  дымка  9/6 1000 м средняя 
[Sc|Ac trans]
+13.9 +13.1 95 +20  1002.6  0.2  739  281           
03 26.06.17 260 (З) 10 км  в посл. час ливневой дождь  9/8 1000 м средняя 
[Sc diur, vesp|Ac trans]
+13.9 +12.3 90 +20  1002.8  0.3  740  281  +11.4    0.0     
06 26.06.17 200 (Ю) 10 км  {ливн. осадки}  9/0 средняя 
[Ac cuf]
+16.2 +12.4 78 +22  1002  -0.7  739  279  +11.4    0.0    влажная 
09 26.06.17 180 (Ю) 10 км  в посл. час ливневой дождь  9/9 600 м 
[Sc diur, vesp]
+17.9 +12.5 71 +23  1000.6  -1.2  738  277           
12 26.06.17 280 (З) 4{10}  10 км  в посл. час ливневой дождь  9/9 600 м кучево-дожд. 
[Cb cap]
+18.1 +14.2 78 +26  999.8  -0.7  737  276           
15 26.06.17 270 (З) 10 км    9/3 1000 м кучево-дожд., средняя 
[Cb cap|Ac cuf]
+19.3 +11 59 +23  999.8  737  275      0.5     
18 26.06.17 200 (Ю) 10 км    9/0 средняя 
[Ac cuf]
+15.9 +9 64 +17  999.3  -0.7  737  279    +19.6  0.5     
21 26.06.17 250 (З) 10 км    1/0 средняя 
[Ac trans]
+13.9 +9 72 +14  1000.2  0.8  738  281           
Время (UTC), дата Ветер
(°,м/с) 
Видим.   Явления Облачность Т
(°С)
Тd
(°С)
f(%) Тe
(°С)
Pmin
(гПа)
dP
(гПа)
Po
(мм)
O2
(г/м3)
Тmin Tmax R s Состояние
почвы

Для получения пояснительной информации подведите курсор к названию столбца.

ПОГОДА в Максатихе - архив

Всё, что Вы хотите узнать о погоде в Максатихе - удобно и подробно!

Выберите нужную дату (начиная с 1 января 2015* года) и нажмите кнопку "Найти".
Будут отображены архивные сводки погоды по пункту Максатиха, начиная с указанной даты.


Отображать данные в формате CSV (для использования в таблицах Excel)


Внимание! Наш архив погоды предназначен исключительно для личного некоммерческого использования в познавательных целях. Если Вам необходимы официальные справки о состоянии погоды (для производственных, юридических, коммерческих и т.п. целей), обращайтесь в органы Росгидромета.

*Примечание: данная дата относится к архиву по метеостанциям СССР (Россия, СНГ, Балтия).
Архив по метеостанциям Зарубежной Европы и Азии (кроме Китая) хранится 10 дней, по другим регионам земного шара (Китай, Африка, Америка, Австралия, Океания) - 1 день.

Максатиха - район местоположения метеостанции


Название, широта, долгота, высота метеостанции:
Максатиха 57.8°ш. 35.9°д. 140 м над ур. моря [Российская Федерация]

Дополнительная информация

В oтличие oт бoльшинства пoгoдных сайтoв мы публикуем пoдрoбную метеoинфoрмацию в детальнoм прoфессиoнальнoм фoрмате.

Характеристики температуры и влажнoсти вoздуха измеряются на высoте 2 м в тени вдали oт зданий и деревьев.
Скoрoсть ветра измеряется на высoте 10 м (на урoвне рoста челoвека скoрoсть ветра ниже в 1.5-2 раза). Если метеoстанция нахoдится в гoрoде или в лесу, тo скoрoсть ветра занижена на 2-4 м/с пo сравнению с oткрытым местoм. Скoрoсть ветра над акватoриями крупных рек и oзёр, а также на вершинах хoлмoв на 2-5 м/с выше, чем в oбычных услoвиях.
Атмoсфернoе давление в разных тoчках местнoсти мoжет значительнo oтличаться oт давления на метеoстанции, в зависимoсти oт услoвий рельефа (при пoдъёме на 10 м давление пoнижается примернo на 1 мм рт.ст.).